Time,TemperatureF,DewpointF,PressureIn,WindDirection,WindDirectionDegrees,WindSpeedMPH,WindSpeedGustMPH,Humidity,HourlyPrecipIn,Conditions,Clouds,dailyrainin,SoftwareType,DateUTC
2013-04-21 00:05:00,39.0,27.8,30.32,NNE,22,2.0,7.0,64,0.00,,,0.00,Weather View 32 v70,2013-04-21 04:05:00,
2013-04-21 00:08:00,39.0,27.8,30.32,NNE,22,2.0,7.0,64,0.00,,,0.00,Weather View 32 v70,2013-04-21 04:08:00,
2013-04-21 00:15:00,39.0,28.2,30.32,NNE,22,3.0,7.0,65,0.00,,,0.00,Weather View 32 v70,2013-04-21 04:15:00,
2013-04-21 00:25:00,39.0,28.2,30.32,ENE,67,1.0,6.0,65,0.00,,,0.00,Weather View 32 v70,2013-04-21 04:25:00,
2013-04-21 00:30:00,39.0,28.2,30.32,ENE,67,1.0,6.0,65,0.00,,,0.00,Weather View 32 v70,2013-04-21 04:30:00,
2013-04-21 00:40:00,39.0,28.2,30.32,NE,45,2.0,7.0,65,0.00,,,0.00,Weather View 32 v70,2013-04-21 04:40:00,
2013-04-21 00:45:00,39.0,28.2,30.32,NNE,22,2.0,7.0,65,0.00,,,0.00,Weather View 32 v70,2013-04-21 04:45:00,
2013-04-21 00:50:00,39.0,28.6,30.32,East,90,0.0,7.0,66,0.00,,,0.00,Weather View 32 v70,2013-04-21 04:50:00,
2013-04-21 00:55:00,39.0,28.2,30.32,ENE,67,1.0,7.0,65,0.00,,,0.00,Weather View 32 v70,2013-04-21 04:55:00,
2013-04-21 01:00:00,39.0,28.6,30.32,NE,45,5.0,7.0,66,0.00,,,0.00,Weather View 32 v70,2013-04-21 05:00:00,
2013-04-21 01:05:00,39.0,28.6,30.33,NNE,22,2.0,7.0,66,0.00,,,0.00,Weather View 32 v70,2013-04-21 05:05:00,
2013-04-21 01:10:00,39.0,28.6,30.33,NNE,22,3.0,7.0,66,0.00,,,0.00,Weather View 32 v70,2013-04-21 05:10:00,
2013-04-21 01:15:00,38.0,27.6,30.33,ENE,67,6.0,7.0,66,0.00,,,0.00,Weather View 32 v70,2013-04-21 05:15:00,
2013-04-21 01:20:00,38.0,27.6,30.33,NE,45,1.0,7.0,66,0.00,,,0.00,Weather View 32 v70,2013-04-21 05:20:00,
2013-04-21 01:30:00,38.0,28.0,30.33,NE,45,2.0,7.0,67,0.00,,,0.00,Weather View 32 v70,2013-04-21 05:30:00,
2013-04-21 01:35:00,38.0,28.4,30.34,NNE,22,2.0,7.0,68,0.00,,,0.00,Weather View 32 v70,2013-04-21 05:35:00,
2013-04-21 01:40:00,38.0,28.7,30.34,NE,45,2.0,7.0,69,0.00,,,0.00,Weather View 32 v70,2013-04-21 05:40:00,
2013-04-21 01:45:00,38.0,28.7,30.34,NE,45,1.0,7.0,69,0.00,,,0.00,Weather View 32 v70,2013-04-21 05:45:00,
2013-04-21 01:50:00,38.0,29.1,30.34,NE,45,0.0,7.0,70,0.00,,,0.00,Weather View 32 v70,2013-04-21 05:50:00,
2013-04-21 01:55:00,38.0,28.7,30.34,ENE,67,0.0,7.0,69,0.00,,,0.00,Weather View 32 v70,2013-04-21 05:55:00,
2013-04-21 02:00:00,37.0,28.1,30.34,East,90,1.0,7.0,70,0.00,,,0.00,Weather View 32 v70,2013-04-21 06:00:00,
2013-04-21 02:09:00,37.0,28.5,30.34,ENE,67,1.0,7.0,71,0.00,,,0.00,Weather View 32 v70,2013-04-21 06:09:00,
2013-04-21 02:15:00,37.0,28.5,30.34,ENE,67,1.0,7.0,71,0.00,,,0.00,Weather View 32 v70,2013-04-21 06:15:00,
2013-04-21 02:20:00,37.0,28.1,30.34,ENE,67,1.0,6.0,70,0.00,,,0.00,Weather View 32 v70,2013-04-21 06:20:00,
2013-04-21 02:25:00,37.0,28.5,30.34,ENE,67,0.0,6.0,71,0.00,,,0.00,Weather View 32 v70,2013-04-21 06:25:00,
2013-04-21 02:30:00,37.0,28.5,30.34,ENE,67,1.0,6.0,71,0.00,,,0.00,Weather View 32 v70,2013-04-21 06:30:00,
2013-04-21 02:35:00,36.0,27.8,30.34,ENE,67,0.0,6.0,72,0.00,,,0.00,Weather View 32 v70,2013-04-21 06:35:00,
2013-04-21 02:45:00,36.0,28.5,30.33,ENE,67,3.0,6.0,74,0.00,,,0.00,Weather View 32 v70,2013-04-21 06:45:00,
2013-04-21 02:50:00,36.0,28.8,30.33,NE,45,1.0,6.0,75,0.00,,,0.00,Weather View 32 v70,2013-04-21 06:50:00,
2013-04-21 02:55:00,36.0,28.8,30.33,East,90,1.0,6.0,75,0.00,,,0.00,Weather View 32 v70,2013-04-21 06:55:00,
2013-04-21 03:00:00,36.0,29.2,30.33,ENE,67,1.0,6.0,76,0.00,,,0.00,Weather View 32 v70,2013-04-21 07:00:00,
2013-04-21 03:05:00,36.0,28.8,30.33,NE,45,4.0,6.0,75,0.00,,,0.00,Weather View 32 v70,2013-04-21 07:05:00,
2013-04-21 03:15:00,36.0,28.8,30.33,NE,45,5.0,6.0,75,0.00,,,0.00,Weather View 32 v70,2013-04-21 07:15:00,
2013-04-21 03:20:00,36.0,28.8,30.33,ENE,67,2.0,6.0,75,0.00,,,0.00,Weather View 32 v70,2013-04-21 07:20:00,
2013-04-21 03:25:00,36.0,28.5,30.33,NE,45,1.0,6.0,74,0.00,,,0.00,Weather View 32 v70,2013-04-21 07:25:00,
2013-04-21 03:30:00,36.0,28.8,30.33,ENE,67,3.0,7.0,75,0.00,,,0.00,Weather View 32 v70,2013-04-21 07:30:00,
2013-04-21 03:35:00,36.0,28.5,30.33,NE,45,3.0,7.0,74,0.00,,,0.00,Weather View 32 v70,2013-04-21 07:35:00,
2013-04-21 03:40:00,36.0,28.5,30.33,NE,45,0.0,9.0,74,0.00,,,0.00,Weather View 32 v70,2013-04-21 07:40:00,
2013-04-21 03:50:00,36.0,28.5,30.33,East,90,1.0,9.0,74,0.00,,,0.00,Weather View 32 v70,2013-04-21 07:50:00,
2013-04-21 03:55:00,36.0,28.5,30.33,NE,45,1.0,9.0,74,0.00,,,0.00,Weather View 32 v70,2013-04-21 07:55:00,
2013-04-21 04:00:00,36.0,28.5,30.33,East,90,0.0,9.0,74,0.00,,,0.00,Weather View 32 v70,2013-04-21 08:00:00,
2013-04-21 04:05:00,36.0,28.5,30.34,ENE,67,4.0,9.0,74,0.00,,,0.00,Weather View 32 v70,2013-04-21 08:05:00,
2013-04-21 04:10:00,36.0,28.5,30.34,ENE,67,3.0,9.0,74,0.00,,,0.00,Weather View 32 v70,2013-04-21 08:10:00,
2013-04-21 04:20:00,36.0,28.8,30.34,East,90,3.0,9.0,75,0.00,,,0.00,Weather View 32 v70,2013-04-21 08:20:00,
2013-04-21 04:25:00,36.0,29.2,30.34,East,90,3.0,9.0,76,0.00,,,0.00,Weather View 32 v70,2013-04-21 08:25:00,
2013-04-21 04:30:00,36.0,29.2,30.34,East,90,1.0,9.0,76,0.00,,,0.00,Weather View 32 v70,2013-04-21 08:30:00,
2013-04-21 04:35:00,36.0,29.2,30.34,ENE,67,1.0,9.0,76,0.00,,,0.00,Weather View 32 v70,2013-04-21 08:35:00,
2013-04-21 04:45:00,36.0,29.5,30.34,East,90,0.0,7.0,77,0.00,,,0.00,Weather View 32 v70,2013-04-21 08:45:00,
2013-04-21 04:50:00,36.0,29.2,30.34,ENE,67,5.0,7.0,76,0.00,,,0.00,Weather View 32 v70,2013-04-21 08:50:00,
2013-04-21 04:55:00,36.0,29.2,30.34,ENE,67,0.0,7.0,76,0.00,,,0.00,Weather View 32 v70,2013-04-21 08:55:00,
2013-04-21 05:00:00,36.0,29.2,30.34,ESE,112,0.0,7.0,76,0.00,,,0.00,Weather View 32 v70,2013-04-21 09:00:00,
2013-04-21 05:05:00,35.0,28.2,30.34,East,90,2.0,7.0,76,0.00,,,0.00,Weather View 32 v70,2013-04-21 09:05:00,
2013-04-21 05:10:00,35.0,28.2,30.34,East,90,2.0,7.0,76,0.00,,,0.00,Weather View 32 v70,2013-04-21 09:10:00,
2013-04-21 05:20:00,36.0,29.2,30.34,ESE,112,3.0,7.0,76,0.00,,,0.00,Weather View 32 v70,2013-04-21 09:20:00,
2013-04-21 05:25:00,36.0,29.2,30.34,East,90,1.0,7.0,76,0.00,,,0.00,Weather View 32 v70,2013-04-21 09:25:00,
2013-04-21 05:30:00,36.0,29.2,30.34,ENE,67,2.0,7.0,76,0.00,,,0.00,Weather View 32 v70,2013-04-21 09:30:00,
2013-04-21 05:40:00,36.0,29.2,30.35,East,90,0.0,7.0,76,0.00,,,0.00,Weather View 32 v70,2013-04-21 09:40:00,
2013-04-21 05:45:00,36.0,29.2,30.35,East,90,0.0,7.0,76,0.00,,,0.00,Weather View 32 v70,2013-04-21 09:45:00,
2013-04-21 05:50:00,36.0,29.2,30.35,NE,45,5.0,7.0,76,0.00,,,0.00,Weather View 32 v70,2013-04-21 09:50:00,
2013-04-21 05:55:00,36.0,29.2,30.35,East,90,2.0,7.0,76,0.00,,,0.00,Weather View 32 v70,2013-04-21 09:55:00,
2013-04-21 06:00:00,36.0,29.2,30.35,East,90,1.0,7.0,76,0.00,,,0.00,Weather View 32 v70,2013-04-21 10:00:00,
2013-04-21 06:05:00,36.0,29.2,30.36,East,90,2.0,7.0,76,0.00,,,0.00,Weather View 32 v70,2013-04-21 10:05:00,
2013-04-21 06:11:00,36.0,29.2,30.36,East,90,2.0,7.0,76,0.00,,,0.00,Weather View 32 v70,2013-04-21 10:11:00,
2013-04-21 06:20:00,36.0,29.2,30.36,ENE,67,6.0,7.0,76,0.00,,,0.00,Weather View 32 v70,2013-04-21 10:20:00,
2013-04-21 06:30:00,36.0,29.2,30.37,ESE,112,2.0,7.0,76,0.00,,,0.00,Weather View 32 v70,2013-04-21 10:30:00,
2013-04-21 06:35:00,36.0,29.2,30.37,NE,45,2.0,7.0,76,0.00,,,0.00,Weather View 32 v70,2013-04-21 10:35:00,
2013-04-21 06:45:00,36.0,29.2,30.38,ENE,67,4.0,7.0,76,0.00,,,0.00,Weather View 32 v70,2013-04-21 10:45:00,
2013-04-21 06:50:00,36.0,29.5,30.38,ENE,67,3.0,7.0,77,0.00,,,0.00,Weather View 32 v70,2013-04-21 10:50:00,
2013-04-21 06:55:00,36.0,29.5,30.38,East,90,1.0,7.0,77,0.00,,,0.00,Weather View 32 v70,2013-04-21 10:55:00,
2013-04-21 07:05:00,35.0,29.1,30.38,NE,45,1.0,7.0,79,0.00,,,0.00,Weather View 32 v70,2013-04-21 11:05:00,
2013-04-21 07:10:00,35.0,29.5,30.38,NE,45,4.0,7.0,80,0.00,,,0.00,Weather View 32 v70,2013-04-21 11:10:00,
2013-04-21 07:15:00,35.0,29.1,30.38,NE,45,0.0,7.0,79,0.00,,,0.00,Weather View 32 v70,2013-04-21 11:15:00,
2013-04-21 07:25:00,35.0,30.1,30.39,NE,45,2.0,7.0,82,0.00,,,0.00,Weather View 32 v70,2013-04-21 11:25:00,
2013-04-21 07:30:00,35.0,30.1,30.39,ENE,67,1.0,7.0,82,0.00,,,0.00,Weather View 32 v70,2013-04-21 11:30:00,
2013-04-21 07:35:00,35.0,30.7,30.39,ENE,67,4.0,7.0,84,0.00,,,0.00,Weather View 32 v70,2013-04-21 11:35:00,
2013-04-21 07:40:00,35.0,30.4,30.40,ENE,67,0.0,7.0,83,0.00,,,0.00,Weather View 32 v70,2013-04-21 11:40:00,
2013-04-21 07:45:00,35.0,30.1,30.40,East,90,3.0,6.0,82,0.00,,,0.00,Weather View 32 v70,2013-04-21 11:45:00,
2013-04-21 07:55:00,36.0,30.4,30.40,East,90,4.0,8.0,80,0.00,,,0.00,Weather View 32 v70,2013-04-21 11:55:00,
2013-04-21 08:00:00,37.0,30.5,30.40,ESE,112,1.0,9.0,77,0.00,,,0.00,Weather View 32 v70,2013-04-21 12:00:00,
2013-04-21 08:05:00,37.0,30.1,30.41,ENE,67,3.0,9.0,76,0.00,,,0.00,Weather View 32 v70,2013-04-21 12:05:00,
2013-04-21 08:10:00,38.0,31.1,30.41,East,90,1.0,9.0,76,0.00,,,0.00,Weather View 32 v70,2013-04-21 12:10:00,
2013-04-21 08:15:00,38.0,29.8,30.41,NE,45,1.0,9.0,72,0.00,,,0.00,Weather View 32 v70,2013-04-21 12:15:00,
2013-04-21 08:20:00,38.0,29.4,30.42,NE,45,2.0,9.0,71,0.00,,,0.00,Weather View 32 v70,2013-04-21 12:20:00,
2013-04-21 08:30:00,39.0,30.4,30.42,East,90,0.0,9.0,71,0.00,,,0.00,Weather View 32 v70,2013-04-21 12:30:00,
2013-04-21 08:35:00,39.0,30.4,30.42,ENE,67,2.0,9.0,71,0.00,,,0.00,Weather View 32 v70,2013-04-21 12:35:00,
2013-04-21 08:40:00,39.0,29.7,30.42,SE,135,7.0,9.0,69,0.00,,,0.00,Weather View 32 v70,2013-04-21 12:40:00,
2013-04-21 08:45:00,40.0,31.0,30.43,SE,135,2.0,9.0,70,0.00,,,0.00,Weather View 32 v70,2013-04-21 12:45:00,
2013-04-21 08:50:00,40.0,29.5,30.43,East,90,3.0,9.0,66,0.00,,,0.00,Weather View 32 v70,2013-04-21 12:50:00,
2013-04-21 08:55:00,41.0,30.1,30.43,NE,45,3.0,10.0,65,0.00,,,0.00,Weather View 32 v70,2013-04-21 12:55:00,
2013-04-21 09:00:00,42.0,31.1,30.43,East,90,3.0,10.0,65,0.00,,,0.00,Weather View 32 v70,2013-04-21 13:00:00,
2013-04-21 09:10:00,43.0,30.5,30.44,East,90,5.0,10.0,61,0.00,,,0.00,Weather View 32 v70,2013-04-21 13:10:00,
2013-04-21 09:15:00,43.0,30.0,30.44,NE,45,3.0,10.0,60,0.00,,,0.00,Weather View 32 v70,2013-04-21 13:15:00,
2013-04-21 09:20:00,43.0,29.2,30.44,SE,135,7.0,13.0,58,0.00,,,0.00,Weather View 32 v70,2013-04-21 13:20:00,
2013-04-21 09:25:00,44.0,30.6,30.44,SSE,157,2.0,13.0,59,0.00,,,0.00,Weather View 32 v70,2013-04-21 13:25:00,
2013-04-21 09:35:00,45.0,31.1,30.44,East,90,2.0,13.0,58,0.00,,,0.00,Weather View 32 v70,2013-04-21 13:35:00,
2013-04-21 09:40:00,45.0,30.7,30.44,SE,135,2.0,13.0,57,0.00,,,0.00,Weather View 32 v70,2013-04-21 13:40:00,
2013-04-21 09:45:00,46.0,30.7,30.44,NNE,22,3.0,13.0,55,0.00,,,0.00,Weather View 32 v70,2013-04-21 13:45:00,
2013-04-21 09:50:00,47.0,31.2,30.44,ESE,112,4.0,13.0,54,0.00,,,0.00,Weather View 32 v70,2013-04-21 13:50:00,
2013-04-21 10:00:00,47.0,30.3,30.45,East,90,3.0,13.0,52,0.00,,,0.00,Weather View 32 v70,2013-04-21 14:00:00,
2013-04-21 10:05:00,48.0,31.2,30.45,East,90,2.0,13.0,52,0.00,,,0.00,Weather View 32 v70,2013-04-21 14:05:00,
2013-04-21 10:10:00,48.0,30.2,30.45,SE,135,6.0,13.0,50,0.00,,,0.00,Weather View 32 v70,2013-04-21 14:10:00,
2013-04-21 10:20:00,48.0,30.2,30.45,ENE,67,4.0,12.0,50,0.00,,,0.00,Weather View 32 v70,2013-04-21 14:20:00,
2013-04-21 10:30:00,49.0,30.1,30.45,East,90,3.0,12.0,48,0.00,,,0.00,Weather View 32 v70,2013-04-21 14:30:00,
2013-04-21 10:40:00,49.0,30.1,30.46,South,180,3.0,13.0,48,0.00,,,0.00,Weather View 32 v70,2013-04-21 14:40:00,
2013-04-21 10:45:00,50.0,30.5,30.46,ESE,112,5.0,13.0,47,0.00,,,0.00,Weather View 32 v70,2013-04-21 14:45:00,
2013-04-21 10:50:00,50.0,31.0,30.46,ENE,67,7.0,13.0,48,0.00,,,0.00,Weather View 32 v70,2013-04-21 14:50:00,
2013-04-21 11:00:00,50.0,29.5,30.46,SE,135,5.0,13.0,45,0.00,,,0.00,Weather View 32 v70,2013-04-21 15:00:00,
2013-04-21 11:05:00,51.0,30.9,30.46,ENE,67,4.0,13.0,46,0.00,,,0.00,Weather View 32 v70,2013-04-21 15:05:00,
2013-04-21 11:10:00,51.0,30.9,30.46,NNE,22,7.0,13.0,46,0.00,,,0.00,Weather View 32 v70,2013-04-21 15:10:00,
2013-04-21 11:20:00,52.0,31.8,30.46,East,90,1.0,13.0,46,0.00,,,0.00,Weather View 32 v70,2013-04-21 15:20:00,
2013-04-21 11:25:00,52.0,30.2,30.46,ENE,67,6.0,13.0,43,0.00,,,0.00,Weather View 32 v70,2013-04-21 15:25:00,
2013-04-21 11:30:00,51.0,29.8,30.47,SE,135,6.0,13.0,44,0.00,,,0.00,Weather View 32 v70,2013-04-21 15:30:00,
2013-04-21 11:35:00,51.0,30.4,30.46,SE,135,6.0,13.0,45,0.00,,,0.00,Weather View 32 v70,2013-04-21 15:35:00,
2013-04-21 11:45:00,53.0,32.2,30.46,SE,135,3.0,13.0,45,0.00,,,0.00,Weather View 32 v70,2013-04-21 15:45:00,
2013-04-21 11:50:00,54.0,32.0,30.46,ENE,67,6.0,13.0,43,0.00,,,0.00,Weather View 32 v70,2013-04-21 15:50:00,
2013-04-21 11:55:00,54.0,32.5,30.46,ENE,67,5.0,13.0,44,0.00,,,0.00,Weather View 32 v70,2013-04-21 15:55:00,
2013-04-21 12:00:00,54.0,32.0,30.46,NE,45,10.0,13.0,43,0.00,,,0.00,Weather View 32 v70,2013-04-21 16:00:00,
2013-04-21 12:05:00,55.0,32.9,30.46,ENE,67,5.0,13.0,43,0.00,,,0.00,Weather View 32 v70,2013-04-21 16:05:00,
2013-04-21 12:15:00,55.0,31.7,30.46,NNE,22,9.0,13.0,41,0.00,,,0.00,Weather View 32 v70,2013-04-21 16:15:00,
2013-04-21 12:25:00,55.0,31.7,30.46,ENE,67,3.0,13.0,41,0.00,,,0.00,Weather View 32 v70,2013-04-21 16:25:00,
2013-04-21 12:30:00,56.0,32.0,30.45,SE,135,4.0,13.0,40,0.00,,,0.00,Weather View 32 v70,2013-04-21 16:30:00,
2013-04-21 12:35:00,55.0,31.1,30.45,ESE,112,3.0,13.0,40,0.00,,,0.00,Weather View 32 v70,2013-04-21 16:35:00,
2013-04-21 12:40:00,55.0,31.1,30.45,ESE,112,4.0,13.0,40,0.00,,,0.00,Weather View 32 v70,2013-04-21 16:40:00,
2013-04-21 12:45:00,56.0,33.8,30.44,SE,135,1.0,13.0,43,0.00,,,0.00,Weather View 32 v70,2013-04-21 16:45:00,
2013-04-21 12:50:00,57.0,32.9,30.44,NE,45,6.0,13.0,40,0.00,,,0.00,Weather View 32 v70,2013-04-21 16:50:00,
2013-04-21 13:00:00,58.0,32.5,30.44,ENE,67,3.0,13.0,38,0.00,,,0.00,Weather View 32 v70,2013-04-21 17:00:00,
2013-04-21 13:05:00,58.0,32.5,30.43,NE,45,8.0,13.0,38,0.00,,,0.00,Weather View 32 v70,2013-04-21 17:05:00,
2013-04-21 13:10:00,58.0,33.1,30.44,North,360,3.0,13.0,39,0.00,,,0.00,Weather View 32 v70,2013-04-21 17:10:00,
2013-04-21 13:15:00,58.0,33.8,30.43,NE,45,2.0,13.0,40,0.00,,,0.00,Weather View 32 v70,2013-04-21 17:15:00,
2013-04-21 13:20:00,59.0,32.0,30.43,ENE,67,1.0,13.0,36,0.00,,,0.00,Weather View 32 v70,2013-04-21 17:20:00,
2013-04-21 13:30:00,59.0,33.4,30.42,North,360,6.0,13.0,38,0.00,,,0.00,Weather View 32 v70,2013-04-21 17:30:00,
2013-04-21 13:35:00,59.0,32.0,30.42,SSE,157,2.0,13.0,36,0.00,,,0.00,Weather View 32 v70,2013-04-21 17:35:00,
2013-04-21 13:40:00,58.0,31.1,30.42,SE,135,4.0,12.0,36,0.00,,,0.00,Weather View 32 v70,2013-04-21 17:40:00,
2013-04-21 13:45:00,59.0,34.0,30.42,North,360,6.0,12.0,39,0.00,,,0.00,Weather View 32 v70,2013-04-21 17:45:00,
2013-04-21 13:50:00,59.0,31.3,30.42,East,90,1.0,12.0,35,0.00,,,0.00,Weather View 32 v70,2013-04-21 17:50:00,
2013-04-21 13:55:00,59.0,33.4,30.42,East,90,5.0,12.0,38,0.00,,,0.00,Weather View 32 v70,2013-04-21 17:55:00,
2013-04-21 14:05:00,59.0,32.7,30.41,ENE,67,6.0,12.0,37,0.00,,,0.00,Weather View 32 v70,2013-04-21 18:05:00,
2013-04-21 14:10:00,60.0,32.9,30.41,South,180,0.0,12.0,36,0.00,,,0.00,Weather View 32 v70,2013-04-21 18:10:00,
2013-04-21 14:15:00,60.0,32.9,30.41,East,90,2.0,12.0,36,0.00,,,0.00,Weather View 32 v70,2013-04-21 18:15:00,
2013-04-21 14:25:00,61.0,33.8,30.40,East,90,4.0,12.0,36,0.00,,,0.00,Weather View 32 v70,2013-04-21 18:25:00,
2013-04-21 14:30:00,61.0,31.6,30.40,ENE,67,3.0,12.0,33,0.00,,,0.00,Weather View 32 v70,2013-04-21 18:30:00,
2013-04-21 14:40:00,60.0,31.5,30.40,East,90,2.0,12.0,34,0.00,,,0.00,Weather View 32 v70,2013-04-21 18:40:00,
2013-04-21 14:45:00,61.0,33.8,30.40,ENE,67,1.0,12.0,36,0.00,,,0.00,Weather View 32 v70,2013-04-21 18:45:00,
2013-04-21 14:50:00,61.0,31.6,30.40,East,90,5.0,14.0,33,0.00,,,0.00,Weather View 32 v70,2013-04-21 18:50:00,
2013-04-21 14:55:00,61.0,33.8,30.39,North,360,9.0,14.0,36,0.00,,,0.00,Weather View 32 v70,2013-04-21 18:55:00,
2013-04-21 15:05:00,62.0,31.7,30.39,ESE,112,5.0,14.0,32,0.00,,,0.00,Weather View 32 v70,2013-04-21 19:05:00,
2013-04-21 15:10:00,61.0,31.6,30.39,SSE,157,2.0,14.0,33,0.00,,,0.00,Weather View 32 v70,2013-04-21 19:10:00,
2013-04-21 15:15:00,62.0,31.0,30.39,ESE,112,9.0,14.0,31,0.00,,,0.00,Weather View 32 v70,2013-04-21 19:15:00,
2013-04-21 15:25:00,62.0,32.5,30.39,East,90,7.0,14.0,33,0.00,,,0.00,Weather View 32 v70,2013-04-21 19:25:00,
2013-04-21 15:30:00,62.0,34.0,30.38,NNE,22,3.0,14.0,35,0.00,,,0.00,Weather View 32 v70,2013-04-21 19:30:00,
2013-04-21 15:35:00,63.0,33.4,30.38,East,90,6.0,14.0,33,0.00,,,0.00,Weather View 32 v70,2013-04-21 19:35:00,
2013-04-21 15:40:00,62.0,31.0,30.38,SE,135,7.0,14.0,31,0.00,,,0.00,Weather View 32 v70,2013-04-21 19:40:00,
2013-04-21 15:45:00,61.0,30.1,30.38,East,90,1.0,14.0,31,0.00,,,0.00,Weather View 32 v70,2013-04-21 19:45:00,
2013-04-21 15:55:00,61.0,33.1,30.37,NE,45,2.0,13.0,35,0.00,,,0.00,Weather View 32 v70,2013-04-21 19:55:00,
2013-04-21 16:00:00,61.0,33.8,30.36,East,90,9.0,13.0,36,0.00,,,0.00,Weather View 32 v70,2013-04-21 20:00:00,
2013-04-21 16:05:00,61.0,31.6,30.36,SE,135,7.0,12.0,33,0.00,,,0.00,Weather View 32 v70,2013-04-21 20:05:00,
2013-04-21 16:10:00,60.0,30.0,30.36,SE,135,3.0,12.0,32,0.00,,,0.00,Weather View 32 v70,2013-04-21 20:10:00,
2013-04-21 16:17:00,60.0,30.8,30.36,SSE,157,1.0,12.0,33,0.00,,,0.00,Weather View 32 v70,2013-04-21 20:17:00,
2013-04-21 16:25:00,60.0,32.2,30.35,NE,45,6.0,12.0,35,0.00,,,0.00,Weather View 32 v70,2013-04-21 20:25:00,
2013-04-21 16:30:00,60.0,30.8,30.35,ENE,67,5.0,12.0,33,0.00,,,0.00,Weather View 32 v70,2013-04-21 20:30:00,
2013-04-21 16:35:00,60.0,32.2,30.34,SE,135,5.0,12.0,35,0.00,,,0.00,Weather View 32 v70,2013-04-21 20:35:00,
2013-04-21 16:45:00,60.0,32.9,30.34,East,90,4.0,10.0,36,0.00,,,0.00,Weather View 32 v70,2013-04-21 20:45:00,
2013-04-21 16:50:00,60.0,31.5,30.34,East,90,3.0,11.0,34,0.00,,,0.00,Weather View 32 v70,2013-04-21 20:50:00,
2013-04-21 16:55:00,60.0,29.2,30.34,ESE,112,1.0,11.0,31,0.00,,,0.00,Weather View 32 v70,2013-04-21 20:55:00,
2013-04-21 17:00:00,60.0,30.8,30.34,North,360,6.0,11.0,33,0.00,,,0.00,Weather View 32 v70,2013-04-21 21:00:00,
2013-04-21 17:10:00,60.0,32.2,30.33,SE,135,2.0,12.0,35,0.00,,,0.00,Weather View 32 v70,2013-04-21 21:10:00,
2013-04-21 17:15:00,60.0,32.9,30.33,NE,45,6.0,12.0,36,0.00,,,0.00,Weather View 32 v70,2013-04-21 21:15:00,
2013-04-21 17:20:00,60.0,30.8,30.33,NE,45,4.0,12.0,33,0.00,,,0.00,Weather View 32 v70,2013-04-21 21:20:00,
2013-04-21 17:25:00,59.0,31.3,30.33,ESE,112,1.0,12.0,35,0.00,,,0.00,Weather View 32 v70,2013-04-21 21:25:00,
2013-04-21 17:35:00,59.0,30.6,30.33,SE,135,5.0,12.0,34,0.00,,,0.00,Weather View 32 v70,2013-04-21 21:35:00,
2013-04-21 17:40:00,59.0,29.9,30.33,NE,45,3.0,12.0,33,0.00,,,0.00,Weather View 32 v70,2013-04-21 21:40:00,
2013-04-21 17:45:00,59.0,30.6,30.33,NE,45,4.0,12.0,34,0.00,,,0.00,Weather View 32 v70,2013-04-21 21:45:00,
2013-04-21 17:50:00,59.0,30.6,30.33,ENE,67,6.0,12.0,34,0.00,,,0.00,Weather View 32 v70,2013-04-21 21:50:00,
2013-04-21 17:55:00,59.0,30.6,30.32,SE,135,2.0,12.0,34,0.00,,,0.00,Weather View 32 v70,2013-04-21 21:55:00,
2013-04-21 18:00:00,59.0,30.6,30.32,ESE,112,4.0,12.0,34,0.00,,,0.00,Weather View 32 v70,2013-04-21 22:00:00,
2013-04-21 18:10:00,59.0,32.0,30.32,North,360,6.0,12.0,36,0.00,,,0.00,Weather View 32 v70,2013-04-21 22:10:00,
2013-04-21 18:15:00,59.0,32.0,30.32,ENE,67,4.0,12.0,36,0.00,,,0.00,Weather View 32 v70,2013-04-21 22:15:00,
2013-04-21 18:25:00,59.0,30.6,30.32,East,90,2.0,11.0,34,0.00,,,0.00,Weather View 32 v70,2013-04-21 22:25:00,
2013-04-21 18:35:00,60.0,30.8,30.32,NE,45,5.0,11.0,33,0.00,,,0.00,Weather View 32 v70,2013-04-21 22:35:00,
2013-04-21 18:40:00,59.0,30.6,30.32,NE,45,7.0,10.0,34,0.00,,,0.00,Weather View 32 v70,2013-04-21 22:40:00,
2013-04-21 18:45:00,59.0,30.6,30.32,NE,45,2.0,11.0,34,0.00,,,0.00,Weather View 32 v70,2013-04-21 22:45:00,
2013-04-21 18:55:00,60.0,31.5,30.32,NE,45,5.0,11.0,34,0.00,,,0.00,Weather View 32 v70,2013-04-21 22:55:00,
2013-04-21 19:00:00,60.0,31.5,30.32,SSE,157,5.0,11.0,34,0.00,,,0.00,Weather View 32 v70,2013-04-21 23:00:00,
2013-04-21 19:10:00,60.0,30.0,30.32,ENE,67,1.0,12.0,32,0.00,,,0.00,Weather View 32 v70,2013-04-21 23:10:00,
2013-04-21 19:15:00,60.0,30.0,30.32,East,90,2.0,12.0,32,0.00,,,0.00,Weather View 32 v70,2013-04-21 23:15:00,
2013-04-21 19:25:00,60.0,30.0,30.32,ENE,67,6.0,12.0,32,0.00,,,0.00,Weather View 32 v70,2013-04-21 23:25:00,
2013-04-21 19:30:00,60.0,30.8,30.32,East,90,7.0,12.0,33,0.00,,,0.00,Weather View 32 v70,2013-04-21 23:30:00,
2013-04-21 19:40:00,59.0,29.1,30.32,SE,135,4.0,12.0,32,0.00,,,0.00,Weather View 32 v70,2013-04-21 23:40:00,
2013-04-21 19:45:00,59.0,29.9,30.32,ESE,112,2.0,12.0,33,0.00,,,0.00,Weather View 32 v70,2013-04-21 23:45:00,
2013-04-21 19:50:00,59.0,29.9,30.32,East,90,0.0,12.0,33,0.00,,,0.00,Weather View 32 v70,2013-04-21 23:50:00,
2013-04-21 20:00:00,58.0,29.7,30.32,NE,45,4.0,12.0,34,0.00,,,0.00,Weather View 32 v70,2013-04-22 00:00:00,
2013-04-21 20:05:00,58.0,30.4,30.32,ENE,67,1.0,11.0,35,0.00,,,0.00,Weather View 32 v70,2013-04-22 00:05:00,
2013-04-21 20:15:00,56.0,30.7,30.31,East,90,4.0,10.0,38,0.00,,,0.00,Weather View 32 v70,2013-04-22 00:15:00,
2013-04-21 20:20:00,56.0,30.7,30.31,ENE,67,0.0,10.0,38,0.00,,,0.00,Weather View 32 v70,2013-04-22 00:20:00,
2013-04-21 20:30:00,55.0,30.4,30.31,East,90,0.0,9.0,39,0.00,,,0.00,Weather View 32 v70,2013-04-22 00:30:00,
2013-04-21 20:35:00,55.0,31.1,30.31,East,90,0.0,9.0,40,0.00,,,0.00,Weather View 32 v70,2013-04-22 00:35:00,
2013-04-21 20:40:00,54.0,30.8,30.31,East,90,0.0,9.0,41,0.00,,,0.00,Weather View 32 v70,2013-04-22 00:40:00,
2013-04-21 20:50:00,53.0,31.1,30.31,NE,45,1.0,7.0,43,0.00,,,0.00,Weather View 32 v70,2013-04-22 00:50:00,
2013-04-21 20:55:00,52.0,30.7,30.31,NE,45,0.0,7.0,44,0.00,,,0.00,Weather View 32 v70,2013-04-22 00:55:00,
2013-04-21 21:05:00,51.0,30.4,30.31,NE,45,3.0,7.0,45,0.00,,,0.00,Weather View 32 v70,2013-04-22 01:05:00,
2013-04-21 21:10:00,51.0,30.4,30.31,NE,45,1.0,7.0,45,0.00,,,0.00,Weather View 32 v70,2013-04-22 01:10:00,
2013-04-21 21:15:00,51.0,30.4,30.31,East,90,0.0,7.0,45,0.00,,,0.00,Weather View 32 v70,2013-04-22 01:15:00,
2013-04-21 21:20:00,51.0,30.4,30.31,East,90,1.0,5.0,45,0.00,,,0.00,Weather View 32 v70,2013-04-22 01:20:00,
2013-04-21 21:30:00,51.0,32.0,30.31,North,360,0.0,4.0,48,0.00,,,0.00,Weather View 32 v70,2013-04-22 01:30:00,
2013-04-21 21:35:00,50.0,31.6,30.31,NNE,22,1.0,4.0,49,0.00,,,0.00,Weather View 32 v70,2013-04-22 01:35:00,
2013-04-21 21:45:00,50.0,32.1,30.31,NE,45,1.0,4.0,50,0.00,,,0.00,Weather View 32 v70,2013-04-22 01:45:00,
2013-04-21 21:50:00,50.0,32.1,30.31,NE,45,3.0,6.0,50,0.00,,,0.00,Weather View 32 v70,2013-04-22 01:50:00,
2013-04-21 22:00:00,50.0,31.6,30.31,NNE,22,1.0,6.0,49,0.00,,,0.00,Weather View 32 v70,2013-04-22 02:00:00,
2013-04-21 22:10:00,50.0,31.6,30.31,NE,45,1.0,6.0,49,0.00,,,0.00,Weather View 32 v70,2013-04-22 02:10:00,
2013-04-21 22:15:00,49.0,31.1,30.31,NE,45,2.0,6.0,50,0.00,,,0.00,Weather View 32 v70,2013-04-22 02:15:00,
2013-04-21 22:21:00,49.0,31.6,30.31,NE,45,2.0,6.0,51,0.00,,,0.00,Weather View 32 v70,2013-04-22 02:21:00,
2013-04-21 22:30:00,49.0,32.6,30.31,NE,45,1.0,6.0,53,0.00,,,0.00,Weather View 32 v70,2013-04-22 02:30:00,
2013-04-21 22:40:00,49.0,32.1,30.31,NE,45,1.0,6.0,52,0.00,,,0.00,Weather View 32 v70,2013-04-22 02:40:00,
2013-04-21 22:45:00,49.0,32.6,30.31,NE,45,5.0,6.0,53,0.00,,,0.00,Weather View 32 v70,2013-04-22 02:45:00,
2013-04-21 22:55:00,48.0,31.7,30.31,NE,45,1.0,6.0,53,0.00,,,0.00,Weather View 32 v70,2013-04-22 02:55:00,
2013-04-21 23:00:00,49.0,32.6,30.31,NNE,22,4.0,6.0,53,0.00,,,0.00,Weather View 32 v70,2013-04-22 03:00:00,
2013-04-21 23:10:00,49.0,32.6,30.30,East,90,1.0,6.0,53,0.00,,,0.00,Weather View 32 v70,2013-04-22 03:10:00,
2013-04-21 23:15:00,49.0,32.6,30.30,ENE,67,4.0,6.0,53,0.00,,,0.00,Weather View 32 v70,2013-04-22 03:15:00,
2013-04-21 23:21:00,48.0,31.7,30.30,NE,45,4.0,6.0,53,0.00,,,0.00,Weather View 32 v70,2013-04-22 03:21:00,
2013-04-21 23:30:00,48.0,32.6,30.30,ESE,112,0.0,7.0,55,0.00,,,0.00,Weather View 32 v70,2013-04-22 03:30:00,
2013-04-21 23:35:00,48.0,32.6,30.30,ENE,67,5.0,7.0,55,0.00,,,0.00,Weather View 32 v70,2013-04-22 03:35:00,
2013-04-21 23:40:00,48.0,32.6,30.30,NE,45,4.0,7.0,55,0.00,,,0.00,Weather View 32 v70,2013-04-22 03:40:00,
2013-04-21 23:50:00,48.0,33.0,30.30,SE,135,1.0,7.0,56,0.00,,,0.00,Weather View 32 v70,2013-04-22 03:50:00,
2013-04-21 23:55:00,47.0,32.5,30.29,NE,45,1.0,7.0,57,0.00,,,0.00,Weather View 32 v70,2013-04-22 03:55:00,